EZY17LC EGKK-LEBL

Flight info

Callsign EZY17LC
Flight time 1h 36m
Altitude 35000
Route SFD Y47 BENBO UY47 DRAKE L151 SITET UN859 SOPIL/N0450F370 DCT BALAN DCT EVPOK DCT NARAK DCT GAI DCT LOMRA DCT ROCAN DCT PUMAL
Aircraft A319/M-SDE3FGHIRWY/LB1

Departure

Time 2026-04-28 09:43
Airport London Gatwick Airport (EGKK)

Arrival

Time 2026-04-28 11:19
Airport Josep Tarradellas Barcelona-El Prat Airport (LEBL)
Time Latitude Longitude Altitude Speed Heading
2026-04-28 09:16 51.15415 -0.18918 204 ft 0 kts 257°
2026-04-28 09:28 51.15415 -0.18914 212 ft 0 kts 257°
2026-04-28 09:34 51.15416 -0.18911 212 ft 2 kts 257°
2026-04-28 09:34 51.15420 -0.18878 209 ft 3 kts 257°
2026-04-28 09:34 51.15425 -0.18845 208 ft 2 kts 257°
2026-04-28 09:35 51.15430 -0.18817 207 ft 3 kts 236°
2026-04-28 09:35 51.15444 -0.18796 212 ft 3 kts 191°
2026-04-28 09:35 51.15464 -0.18796 211 ft 3 kts 167°
2026-04-28 09:35 51.15485 -0.18803 216 ft 3 kts 167°
2026-04-28 09:36 51.15499 -0.18808 209 ft 0 kts 167°
2026-04-28 09:37 51.15472 -0.18799 212 ft 7 kts 168°
2026-04-28 09:38 51.15403 -0.18776 213 ft 13 kts 167°
2026-04-28 09:38 51.15308 -0.18741 204 ft 14 kts 167°
2026-04-28 09:38 51.15207 -0.18707 208 ft 16 kts 167°
2026-04-28 09:38 51.15124 -0.18774 205 ft 18 kts 256°
2026-04-28 09:39 51.15094 -0.18987 204 ft 20 kts 258°
2026-04-28 09:39 51.15065 -0.19203 204 ft 20 kts 258°
2026-04-28 09:39 51.15035 -0.19425 204 ft 21 kts 258°
2026-04-28 09:39 51.15001 -0.19663 209 ft 23 kts 257°
2026-04-28 09:40 51.14967 -0.19912 208 ft 24 kts 258°
2026-04-28 09:40 51.14930 -0.20179 206 ft 26 kts 257°
2026-04-28 09:40 51.14891 -0.20466 205 ft 26 kts 257°
2026-04-28 09:40 51.14852 -0.20750 209 ft 26 kts 257°
2026-04-28 09:41 51.14815 -0.21016 204 ft 23 kts 258°
2026-04-28 09:41 51.14781 -0.21205 206 ft 17 kts 255°
2026-04-28 09:41 51.14746 -0.21385 209 ft 17 kts 227°
2026-04-28 09:41 51.14650 -0.21341 206 ft 15 kts 156°
2026-04-28 09:42 51.14550 -0.21280 210 ft 16 kts 142°
2026-04-28 09:42 51.14523 -0.21144 203 ft 8 kts 74°
2026-04-28 09:42 51.14541 -0.21019 213 ft 30 kts 78°
2026-04-28 09:42 51.14656 -0.20194 214 ft 120 kts 77°
2026-04-28 09:43 51.14872 -0.18591 529 ft 156 kts 75°
2026-04-28 09:43 51.15098 -0.16905 1491 ft 156 kts 74°
2026-04-28 09:43 51.15340 -0.15112 2056 ft 176 kts 74°
2026-04-28 09:43 51.15624 -0.13082 2505 ft 198 kts 75°
2026-04-28 09:44 51.15915 -0.11003 3419 ft 201 kts 75°
2026-04-28 09:44 51.16201 -0.08806 4336 ft 210 kts 79°
2026-04-28 09:44 51.15894 -0.06542 4615 ft 221 kts 121°
2026-04-28 09:44 51.14565 -0.05000 5066 ft 258 kts 153°
2026-04-28 09:45 51.12794 -0.04170 5922 ft 270 kts 162°
2026-04-28 09:45 51.10932 -0.03606 6935 ft 274 kts 166°
2026-04-28 09:45 51.09006 -0.03361 7899 ft 281 kts 174°
2026-04-28 09:45 51.07102 -0.03275 8843 ft 284 kts 174°
2026-04-28 09:46 51.05114 -0.03211 9805 ft 287 kts 174°
2026-04-28 09:46 51.03096 -0.03154 10574 ft 298 kts 175°
2026-04-28 09:46 51.00942 -0.03081 10916 ft 321 kts 175°
2026-04-28 09:46 50.98661 -0.03003 11527 ft 333 kts 174°
2026-04-28 09:47 50.96322 -0.02925 12352 ft 339 kts 174°
2026-04-28 09:47 50.93949 -0.02847 13213 ft 344 kts 175°
2026-04-28 09:47 50.91537 -0.02769 14038 ft 349 kts 176°
2026-04-28 09:47 50.89111 -0.02690 14739 ft 354 kts 175°
2026-04-28 09:48 50.86635 -0.02608 15475 ft 357 kts 175°
2026-04-28 09:48 50.84141 -0.02525 16224 ft 361 kts 174°
2026-04-28 09:48 50.81616 -0.02438 16932 ft 365 kts 175°
2026-04-28 09:48 50.79061 -0.02349 17612 ft 370 kts 175°
2026-04-28 09:49 50.76474 -0.02257 18313 ft 374 kts 175°
2026-04-28 09:49 50.73859 -0.02161 18945 ft 378 kts 175°
2026-04-28 09:49 50.71217 -0.02066 19533 ft 382 kts 174°
2026-04-28 09:49 50.68541 -0.01969 20120 ft 387 kts 174°
2026-04-28 09:50 50.65832 -0.01874 20700 ft 392 kts 174°
2026-04-28 09:50 50.63093 -0.01787 21323 ft 395 kts 174°
2026-04-28 09:50 50.60331 -0.01696 21931 ft 399 kts 174°
2026-04-28 09:50 50.57536 -0.01605 22514 ft 404 kts 174°
2026-04-28 09:51 50.54716 -0.01515 23100 ft 408 kts 174°
2026-04-28 09:51 50.51864 -0.01418 23685 ft 412 kts 174°
2026-04-28 09:51 50.48986 -0.01315 24170 ft 416 kts 174°
2026-04-28 09:51 50.46085 -0.01210 24656 ft 418 kts 174°
2026-04-28 09:52 50.43164 -0.01108 25136 ft 421 kts 174°
2026-04-28 09:52 50.40228 -0.01007 25653 ft 422 kts 175°
2026-04-28 09:52 50.37287 -0.00907 26156 ft 424 kts 175°
2026-04-28 09:52 50.34327 -0.00809 26585 ft 427 kts 175°
2026-04-28 09:53 50.31349 -0.00712 27020 ft 429 kts 175°
2026-04-28 09:53 50.28350 -0.00611 27456 ft 432 kts 176°
2026-04-28 09:53 50.25341 -0.00509 27862 ft 435 kts 177°
2026-04-28 09:53 50.22304 -0.00408 28256 ft 438 kts 175°
2026-04-28 09:54 50.19238 -0.00306 28625 ft 442 kts 178°
2026-04-28 09:54 50.16169 -0.00205 29165 ft 441 kts 178°
2026-04-28 09:54 50.13100 -0.00106 29637 ft 442 kts 178°
2026-04-28 09:54 50.10029 0.00191 30045 ft 444 kts 172°
2026-04-28 09:55 50.07002 0.01175 30382 ft 446 kts 165°
2026-04-28 09:55 50.03990 0.02371 30674 ft 448 kts 165°
2026-04-28 09:55 50.00963 0.03571 30971 ft 450 kts 165°
2026-04-28 09:55 49.97917 0.04776 31254 ft 452 kts 165°
2026-04-28 09:56 49.94901 0.05966 31546 ft 454 kts 167°
2026-04-28 09:56 49.91794 0.07186 31859 ft 455 kts 167°
2026-04-28 09:56 49.88720 0.08388 32214 ft 455 kts 167°
2026-04-28 09:56 49.85692 0.09569 32594 ft 455 kts 167°
2026-04-28 09:57 49.82625 0.10763 32971 ft 454 kts 166°
2026-04-28 09:57 49.79560 0.11953 33344 ft 454 kts 167°
2026-04-28 09:57 49.76495 0.13142 33708 ft 454 kts 166°
2026-04-28 09:57 49.73430 0.14334 34089 ft 454 kts 167°
2026-04-28 09:58 49.70370 0.15526 34427 ft 453 kts 167°
2026-04-28 09:58 49.67313 0.16724 34717 ft 454 kts 167°
2026-04-28 09:58 49.64251 0.17946 34970 ft 455 kts 166°
2026-04-28 09:58 49.61184 0.19188 35144 ft 456 kts 166°
2026-04-28 09:59 49.55113 0.21658 35199 ft 447 kts 166°
2026-04-28 09:59 49.49105 0.24078 35190 ft 447 kts 167°
2026-04-28 10:00 49.43081 0.26481 35165 ft 448 kts 168°
2026-04-28 10:00 49.37053 0.28888 35166 ft 447 kts 167°
2026-04-28 10:01 49.31034 0.31286 35165 ft 446 kts 168°
2026-04-28 10:01 49.25040 0.33764 35152 ft 446 kts 167°
2026-04-28 10:02 49.19056 0.36317 35143 ft 446 kts 166°
2026-04-28 10:02 49.13074 0.38870 35145 ft 446 kts 167°
2026-04-28 10:03 49.07087 0.41391 35128 ft 446 kts 167°
2026-04-28 10:03 49.01098 0.43874 35124 ft 446 kts 167°
2026-04-28 10:04 48.95109 0.46354 35129 ft 446 kts 167°
2026-04-28 10:04 48.89131 0.48845 35129 ft 445 kts 167°
2026-04-28 10:05 48.83154 0.51323 35135 ft 445 kts 167°
2026-04-28 10:05 48.77180 0.53786 35122 ft 445 kts 168°
2026-04-28 10:06 48.71193 0.56152 35118 ft 444 kts 168°
2026-04-28 10:06 48.65203 0.58469 35117 ft 444 kts 168°
2026-04-28 10:07 48.59212 0.60793 35099 ft 444 kts 169°
2026-04-28 10:07 48.53221 0.63128 35096 ft 445 kts 169°
2026-04-28 10:08 48.47236 0.65507 35095 ft 445 kts 168°
2026-04-28 10:08 48.41261 0.67958 35084 ft 445 kts 169°
2026-04-28 10:09 48.35285 0.70409 35081 ft 445 kts 169°
2026-04-28 10:09 48.29307 0.72828 35080 ft 445 kts 169°
2026-04-28 10:10 48.24336 0.74825 35081 ft 445 kts 169°
2026-04-28 10:10 48.18354 0.77197 35067 ft 444 kts 170°
2026-04-28 10:11 48.12381 0.79543 35073 ft 444 kts 170°
2026-04-28 10:11 48.06407 0.81876 35077 ft 443 kts 170°
2026-04-28 10:12 48.00440 0.84202 35054 ft 443 kts 170°
2026-04-28 10:12 47.94490 0.86526 35080 ft 441 kts 170°
2026-04-28 10:13 47.88565 0.88832 35091 ft 439 kts 170°
2026-04-28 10:13 47.82665 0.91127 35093 ft 438 kts 170°
2026-04-28 10:14 47.76777 0.93413 35065 ft 437 kts 171°
2026-04-28 10:14 47.70907 0.95686 35073 ft 435 kts 171°
2026-04-28 10:15 47.65048 0.97947 35072 ft 435 kts 171°
2026-04-28 10:15 47.59194 1.00193 35068 ft 434 kts 171°
2026-04-28 10:16 47.53349 1.02436 35053 ft 434 kts 172°
2026-04-28 10:16 47.47511 1.04676 35057 ft 433 kts 172°
2026-04-28 10:17 47.41650 1.06365 35052 ft 423 kts 184°
2026-04-28 10:17 47.35807 1.06272 35027 ft 419 kts 187°
2026-04-28 10:18 47.29979 1.06123 35043 ft 418 kts 187°
2026-04-28 10:18 47.24159 1.06000 35049 ft 418 kts 187°
2026-04-28 10:19 47.18349 1.05872 35047 ft 417 kts 187°
2026-04-28 10:19 47.12548 1.05735 35028 ft 417 kts 188°
2026-04-28 10:20 47.06753 1.05604 35036 ft 416 kts 188°
2026-04-28 10:20 47.00973 1.05460 35036 ft 415 kts 188°
2026-04-28 10:21 46.95201 1.05225 35010 ft 414 kts 188°
2026-04-28 10:21 46.89439 1.04947 35018 ft 414 kts 188°
2026-04-28 10:22 46.83675 1.04683 35021 ft 414 kts 188°
2026-04-28 10:22 46.77947 1.04452 35022 ft 414 kts 188°
2026-04-28 10:23 46.72181 1.04217 35025 ft 414 kts 188°
2026-04-28 10:23 46.66419 1.03963 35026 ft 414 kts 188°
2026-04-28 10:24 46.60654 1.03709 35028 ft 414 kts 188°
2026-04-28 10:24 46.54889 1.03469 34992 ft 414 kts 188°
2026-04-28 10:25 46.49098 1.04153 35006 ft 426 kts 174°
2026-04-28 10:25 46.43317 1.06101 35012 ft 426 kts 174°
2026-04-28 10:26 46.37538 1.08043 35017 ft 426 kts 174°
2026-04-28 10:26 46.31764 1.09974 35008 ft 426 kts 174°
2026-04-28 10:27 46.25992 1.11897 35012 ft 425 kts 174°
2026-04-28 10:27 46.20224 1.13802 35018 ft 425 kts 174°
2026-04-28 10:28 46.14461 1.15701 34998 ft 425 kts 174°
2026-04-28 10:29 46.05822 1.18562 35023 ft 425 kts 174°
2026-04-28 10:29 46.00061 1.20467 35027 ft 424 kts 174°
2026-04-28 10:30 45.94301 1.22363 35013 ft 425 kts 174°
2026-04-28 10:30 45.88536 1.24252 35029 ft 425 kts 174°
2026-04-28 10:31 45.82763 1.26145 35036 ft 426 kts 174°
2026-04-28 10:31 45.76986 1.28033 35038 ft 426 kts 174°
2026-04-28 10:32 45.71207 1.29909 35019 ft 426 kts 174°
2026-04-28 10:32 45.65432 1.31781 35004 ft 425 kts 174°
2026-04-28 10:33 45.59659 1.33659 35007 ft 425 kts 174°
2026-04-28 10:33 45.53889 1.35531 34994 ft 425 kts 174°
2026-04-28 10:34 45.48130 1.37390 35009 ft 424 kts 174°
2026-04-28 10:34 45.42378 1.39246 35016 ft 424 kts 174°
2026-04-28 10:35 45.36626 1.41102 35008 ft 424 kts 174°
2026-04-28 10:35 45.30879 1.42948 35022 ft 423 kts 174°
2026-04-28 10:36 45.25131 1.44786 35042 ft 423 kts 174°
2026-04-28 10:36 45.19388 1.46626 35047 ft 423 kts 174°
2026-04-28 10:37 45.13645 1.48455 35038 ft 423 kts 174°
2026-04-28 10:37 45.07905 1.50285 35043 ft 423 kts 174°
2026-04-28 10:38 45.02163 1.52110 35048 ft 423 kts 174°
2026-04-28 10:38 44.96456 1.53922 35025 ft 423 kts 173°
2026-04-28 10:39 44.90722 1.55734 35041 ft 422 kts 173°
2026-04-28 10:39 44.85002 1.57547 35049 ft 421 kts 173°
2026-04-28 10:40 44.79286 1.59355 35054 ft 421 kts 173°
2026-04-28 10:40 44.73574 1.61147 35053 ft 420 kts 173°
2026-04-28 10:41 44.67874 1.62941 35053 ft 420 kts 173°
2026-04-28 10:41 44.62173 1.64730 35052 ft 420 kts 173°
2026-04-28 10:42 44.56477 1.66515 35042 ft 419 kts 173°
2026-04-28 10:42 44.50783 1.68290 35052 ft 419 kts 173°
2026-04-28 10:43 44.45094 1.70056 35056 ft 419 kts 173°
2026-04-28 10:43 44.39405 1.71815 35030 ft 419 kts 173°
2026-04-28 10:44 44.33720 1.73585 35038 ft 419 kts 173°
2026-04-28 10:44 44.28030 1.75316 35045 ft 418 kts 174°
2026-04-28 10:45 44.22312 1.76664 35044 ft 416 kts 177°
2026-04-28 10:45 44.16584 1.77808 35040 ft 416 kts 177°
2026-04-28 10:46 44.10855 1.78995 35043 ft 416 kts 176°
2026-04-28 10:46 44.05125 1.80247 35050 ft 417 kts 176°
2026-04-28 10:47 43.99394 1.81534 35033 ft 417 kts 175°
2026-04-28 10:47 43.93661 1.82722 35038 ft 416 kts 178°
2026-04-28 10:48 43.87904 1.83360 35047 ft 414 kts 181°
2026-04-28 10:48 43.82151 1.83769 35053 ft 414 kts 181°
2026-04-28 10:49 43.76389 1.84241 35048 ft 415 kts 181°
2026-04-28 10:49 43.70629 1.84798 35050 ft 415 kts 180°
2026-04-28 10:50 43.64866 1.85385 35049 ft 415 kts 180°
2026-04-28 10:50 43.59107 1.85948 35041 ft 415 kts 180°
2026-04-28 10:51 43.53347 1.86492 35039 ft 415 kts 180°
2026-04-28 10:51 43.47591 1.87039 35043 ft 415 kts 180°
2026-04-28 10:52 43.41834 1.87596 35045 ft 415 kts 180°
2026-04-28 10:52 43.36078 1.88147 35025 ft 415 kts 180°
2026-04-28 10:53 43.31295 1.88605 35028 ft 415 kts 180°
2026-04-28 10:53 43.24607 1.89243 35031 ft 414 kts 180°
2026-04-28 10:54 43.18851 1.89793 35021 ft 414 kts 180°
2026-04-28 10:54 43.14033 1.90251 35021 ft 414 kts 180°
2026-04-28 10:55 43.08279 1.90800 35022 ft 415 kts 180°
2026-04-28 10:55 43.02522 1.91356 35019 ft 415 kts 180°
2026-04-28 10:56 42.96758 1.91907 35009 ft 415 kts 180°
2026-04-28 10:56 42.90931 1.92450 34666 ft 423 kts 180°
2026-04-28 10:56 42.88010 1.92722 34227 ft 419 kts 180°
2026-04-28 10:57 42.85113 1.92994 33661 ft 416 kts 180°
2026-04-28 10:57 42.82276 1.93262 33156 ft 412 kts 180°
2026-04-28 10:57 42.79454 1.93529 32647 ft 408 kts 180°
2026-04-28 10:57 42.76634 1.93793 32133 ft 405 kts 180°
2026-04-28 10:58 42.73834 1.94059 31630 ft 402 kts 180°
2026-04-28 10:58 42.71055 1.94324 31138 ft 399 kts 180°
2026-04-28 10:58 42.68298 1.94581 30636 ft 397 kts 180°
2026-04-28 10:58 42.65550 1.94905 30133 ft 396 kts 177°
2026-04-28 10:59 42.62820 1.95383 29579 ft 395 kts 175°
2026-04-28 10:59 42.60118 1.95955 29095 ft 392 kts 174°
2026-04-28 10:59 42.57440 1.96561 28613 ft 388 kts 174°
2026-04-28 10:59 42.54773 1.96885 28158 ft 383 kts 187°
2026-04-28 11:00 42.52179 1.96245 27885 ft 379 kts 197°
2026-04-28 11:00 42.49632 1.95345 27624 ft 378 kts 198°
2026-04-28 11:00 42.47088 1.94440 27368 ft 377 kts 197°
2026-04-28 11:00 42.44553 1.93538 27118 ft 376 kts 197°
2026-04-28 11:01 42.42032 1.92641 26858 ft 372 kts 197°
2026-04-28 11:01 42.39546 1.91754 26476 ft 368 kts 197°
2026-04-28 11:01 42.37079 1.90873 26064 ft 365 kts 197°
2026-04-28 11:01 42.34635 1.89998 25633 ft 362 kts 197°
2026-04-28 11:02 42.32210 1.89129 25213 ft 359 kts 197°
2026-04-28 11:02 42.29801 1.88267 24784 ft 357 kts 197°
2026-04-28 11:02 42.27405 1.87413 24352 ft 355 kts 197°
2026-04-28 11:02 42.25020 1.86564 23911 ft 354 kts 197°
2026-04-28 11:03 42.22650 1.85720 23435 ft 351 kts 197°
2026-04-28 11:03 42.20301 1.84887 22967 ft 347 kts 197°
2026-04-28 11:03 42.17975 1.84064 22511 ft 344 kts 196°
2026-04-28 11:03 42.15671 1.83250 22078 ft 340 kts 196°
2026-04-28 11:04 42.13389 1.82441 21647 ft 338 kts 196°
2026-04-28 11:04 42.11124 1.81639 21218 ft 335 kts 196°
2026-04-28 11:04 42.08874 1.80841 20792 ft 333 kts 196°
2026-04-28 11:04 42.06636 1.80048 20371 ft 332 kts 196°
2026-04-28 11:05 42.04407 1.79258 19951 ft 331 kts 195°
2026-04-28 11:05 42.02186 1.78475 19535 ft 329 kts 195°
2026-04-28 11:05 41.99974 1.77698 19114 ft 328 kts 195°
2026-04-28 11:05 41.97769 1.76922 18703 ft 327 kts 195°
2026-04-28 11:06 41.95572 1.76147 18284 ft 326 kts 195°
2026-04-28 11:06 41.93380 1.75372 17839 ft 325 kts 195°
2026-04-28 11:06 41.91205 1.74608 17431 ft 322 kts 195°
2026-04-28 11:06 41.89044 1.73850 17035 ft 320 kts 195°
2026-04-28 11:07 41.86900 1.73095 16650 ft 318 kts 195°
2026-04-28 11:07 41.84768 1.72347 16255 ft 316 kts 195°
2026-04-28 11:07 41.82643 1.71605 15863 ft 315 kts 195°
2026-04-28 11:07 41.80533 1.70868 15484 ft 313 kts 195°
2026-04-28 11:08 41.78428 1.70131 15097 ft 312 kts 195°
2026-04-28 11:08 41.76329 1.69396 14719 ft 311 kts 195°
2026-04-28 11:08 41.74236 1.68661 14331 ft 311 kts 195°
2026-04-28 11:08 41.72147 1.67929 13943 ft 310 kts 195°
2026-04-28 11:09 41.70060 1.67198 13523 ft 310 kts 195°
2026-04-28 11:09 41.67982 1.66474 13136 ft 307 kts 195°
2026-04-28 11:09 41.65920 1.65757 12754 ft 305 kts 195°
2026-04-28 11:09 41.63873 1.65044 12366 ft 303 kts 195°
2026-04-28 11:10 41.61836 1.64335 11976 ft 302 kts 194°
2026-04-28 11:10 41.59811 1.63633 11586 ft 300 kts 194°
2026-04-28 11:10 41.57794 1.62933 11205 ft 299 kts 194°
2026-04-28 11:10 41.55785 1.62234 10807 ft 297 kts 194°
2026-04-28 11:11 41.53767 1.61665 10413 ft 297 kts 182°
2026-04-28 11:11 41.51755 1.62069 10113 ft 292 kts 164°
2026-04-28 11:11 41.49839 1.62896 9825 ft 287 kts 162°
2026-04-28 11:11 41.47961 1.63740 9507 ft 283 kts 162°
2026-04-28 11:12 41.46144 1.64674 9188 ft 278 kts 151°
2026-04-28 11:12 41.44589 1.66183 8893 ft 275 kts 142°
2026-04-28 11:12 41.43107 1.67787 8576 ft 272 kts 142°
2026-04-28 11:12 41.41649 1.69373 8281 ft 269 kts 142°
2026-04-28 11:13 41.40210 1.70934 7973 ft 265 kts 142°
2026-04-28 11:13 41.38791 1.72467 7676 ft 261 kts 142°
2026-04-28 11:13 41.37390 1.73971 7383 ft 256 kts 142°
2026-04-28 11:13 41.36014 1.75452 7088 ft 253 kts 142°
2026-04-28 11:14 41.34659 1.76913 6800 ft 249 kts 142°
2026-04-28 11:14 41.33318 1.78344 6516 ft 245 kts 142°
2026-04-28 11:14 41.31995 1.79752 6178 ft 242 kts 142°
2026-04-28 11:14 41.30692 1.81134 5745 ft 237 kts 141°
2026-04-28 11:15 41.29409 1.82482 5317 ft 232 kts 142°
2026-04-28 11:15 41.28165 1.83777 4917 ft 230 kts 142°
2026-04-28 11:15 41.26899 1.85082 4481 ft 225 kts 142°
2026-04-28 11:15 41.25691 1.86342 4049 ft 224 kts 138°
2026-04-28 11:16 41.24701 1.87991 3439 ft 232 kts 117°
2026-04-28 11:16 41.24235 1.90021 2837 ft 235 kts 96°
2026-04-28 11:16 41.24372 1.92139 2469 ft 227 kts 75°
2026-04-28 11:16 41.24963 1.94039 2162 ft 217 kts 66°
2026-04-28 11:17 41.25575 1.95813 1884 ft 200 kts 67°
2026-04-28 11:17 41.26128 1.97419 1646 ft 183 kts 66°
2026-04-28 11:17 41.26635 1.98893 1411 ft 168 kts 66°
2026-04-28 11:17 41.27091 2.00220 1184 ft 149 kts 66°
2026-04-28 11:18 41.27502 2.01417 992 ft 137 kts 66°
2026-04-28 11:18 41.27890 2.02549 810 ft 133 kts 67°
2026-04-28 11:18 41.28267 2.03646 634 ft 132 kts 67°
2026-04-28 11:18 41.28648 2.04755 458 ft 132 kts 67°
2026-04-28 11:19 41.29032 2.05858 258 ft 131 kts 69°
2026-04-28 11:19 41.29406 2.06957 110 ft 131 kts 68°
2026-04-28 11:19 41.29769 2.08023 21 ft 115 kts 67°
2026-04-28 11:19 41.29993 2.08646 19 ft 41 kts 54°
2026-04-28 11:20 41.30190 2.08854 18 ft 24 kts 25°
2026-04-28 11:20 41.30333 2.08914 18 ft 20 kts
2026-04-28 11:20 41.30381 2.08864 18 ft 6 kts 238°
2026-04-28 11:20 41.30347 2.08776 19 ft 18 kts 245°
2026-04-28 11:21 41.30293 2.08619 19 ft 19 kts 245°
2026-04-28 11:21 41.30253 2.08473 18 ft 15 kts 285°
2026-04-28 11:21 41.30322 2.08418 19 ft 5 kts 336°
2026-04-28 11:21 41.30334 2.08393 18 ft 2 kts 288°
2026-04-28 11:22 41.30339 2.08372 18 ft 3 kts 288°
2026-04-28 11:22 41.30348 2.08350 19 ft 3 kts 303°
2026-04-28 11:22 41.30363 2.08322 18 ft 5 kts 303°
2026-04-28 11:22 41.30369 2.08309 18 ft 0 kts 303°